Location: Namasale
(1.5000°N, 32.6167°E)
Time: 19:46:51
(UTC+00:00)

ATLAS 3B CENTAUR R/B - Pass Details

Date: 09 April 2020
Orbit: 220 x 4398 km, 28.1° (Epoch: 28 May)

Event Time Altitude Azimuth Distance (km) Brightness Sun altitude
Rises 15:57:07 0° 305° (NW) 6,469 8.1 -1.3°
Reaches altitude 10° 16:02:46 10° 309° (NW) 4,666 7.1 -2.7°
Maximum altitude 16:13:35 50° 21° (NNE) 1,338 3.2 -5.4°
Drops below altitude 10° 16:18:20 10° 97° (E) 2,102 3.6 -6.6°
Enters shadow 16:18:40 - 99° (E) 2,219 3.7 -6.7°
